Time,TemperatureF,DewpointF,PressureIn,WindDirection,WindDirectionDegrees,WindSpeedMPH,WindSpeedGustMPH,Humidity,HourlyPrecipIn,Conditions,Clouds,dailyrainin,SoftwareType,DateUTC
2013-03-10 00:01:00,33.2,32.0,30.12,SE,140,11.0,-999.0,95,-99.99,,,0.00,weatherlink.com 1.10,2013-03-10 05:01:00,
2013-03-10 00:16:00,33.2,32.0,30.11,SE,132,11.0,-999.0,95,-99.99,,,0.00,weatherlink.com 1.10,2013-03-10 05:16:00,
2013-03-10 00:31:00,33.3,32.0,30.10,SE,132,11.0,-999.0,96,-99.99,,,0.00,weatherlink.com 1.10,2013-03-10 05:31:00,
2013-03-10 00:46:00,33.4,32.0,30.09,ESE,117,11.0,-999.0,96,-99.99,,,0.00,weatherlink.com 1.10,2013-03-10 05:46:00,
2013-03-10 01:01:00,33.4,32.0,30.08,ESE,123,10.0,-999.0,96,-99.99,,,0.00,weatherlink.com 1.10,2013-03-10 06:01:00,
2013-03-10 01:17:00,33.4,32.0,30.07,SE,138,10.0,-999.0,96,-99.99,,,0.00,weatherlink.com 1.10,2013-03-10 06:17:00,
2013-03-10 01:32:00,33.4,32.0,30.06,SE,132,4.0,-999.0,96,-99.99,,,0.00,weatherlink.com 1.10,2013-03-10 06:32:00,
2013-03-10 01:47:00,33.5,33.0,30.07,SE,140,6.0,-999.0,96,-99.99,,,0.00,weatherlink.com 1.10,2013-03-10 06:47:00,
2013-03-10 03:01:00,33.6,33.0,30.07,SSE,149,5.0,-999.0,96,-99.99,,,0.00,weatherlink.com 1.10,2013-03-10 07:01:00,
2013-03-10 03:16:00,33.8,33.0,30.05,SE,140,12.0,-999.0,96,-99.99,,,0.00,weatherlink.com 1.10,2013-03-10 07:16:00,
2013-03-10 03:31:00,33.8,33.0,30.04,SE,139,11.0,-999.0,96,-99.99,,,0.00,weatherlink.com 1.10,2013-03-10 07:31:00,
2013-03-10 03:47:00,33.9,33.0,30.02,ESE,121,10.0,-999.0,96,-99.99,,,0.00,weatherlink.com 1.10,2013-03-10 07:47:00,
2013-03-10 04:02:00,34.0,33.0,30.02,SE,145,7.0,-999.0,96,-99.99,,,0.02,weatherlink.com 1.10,2013-03-10 08:02:00,
2013-03-10 04:17:00,34.2,33.0,30.01,SE,140,6.0,-999.0,96,-99.99,,,0.02,weatherlink.com 1.10,2013-03-10 08:17:00,
2013-03-10 04:32:00,34.3,34.0,30.00,SE,140,9.0,-999.0,97,-99.99,,,0.03,weatherlink.com 1.10,2013-03-10 08:32:00,
2013-03-10 04:47:00,34.4,34.0,30.00,SE,132,11.0,-999.0,97,-99.99,,,0.04,weatherlink.com 1.10,2013-03-10 08:47:00,
2013-03-10 05:02:00,34.4,34.0,29.99,SE,131,9.0,-999.0,97,-99.99,,,0.05,weatherlink.com 1.10,2013-03-10 09:02:00,
2013-03-10 05:17:00,34.5,34.0,29.98,ESE,117,5.0,-999.0,96,-99.99,,,0.05,weatherlink.com 1.10,2013-03-10 09:17:00,
2013-03-10 05:32:00,34.6,34.0,29.98,SE,131,9.0,-999.0,97,-99.99,,,0.06,weatherlink.com 1.10,2013-03-10 09:32:00,
2013-03-10 05:47:00,34.7,34.0,29.98,ESE,122,6.0,-999.0,97,-99.99,,,0.06,weatherlink.com 1.10,2013-03-10 09:47:00,
2013-03-10 06:02:00,34.6,34.0,29.98,SE,139,9.0,-999.0,97,-99.99,,,0.06,weatherlink.com 1.10,2013-03-10 10:02:00,
2013-03-10 06:17:00,34.8,34.0,29.98,SE,137,7.0,-999.0,97,-99.99,,,0.08,weatherlink.com 1.10,2013-03-10 10:17:00,
2013-03-10 06:32:00,34.8,34.0,29.97,SE,128,4.0,-999.0,97,-99.99,,,0.08,weatherlink.com 1.10,2013-03-10 10:32:00,
2013-03-10 06:47:00,34.8,34.0,29.98,SE,126,5.0,-999.0,97,-99.99,,,0.09,weatherlink.com 1.10,2013-03-10 10:47:00,
2013-03-10 07:02:00,34.8,34.0,29.97,SE,132,11.0,-999.0,97,-99.99,,,0.09,weatherlink.com 1.10,2013-03-10 11:02:00,
2013-03-10 07:17:00,34.7,34.0,29.96,ESE,119,3.0,-999.0,97,-99.99,,,0.10,weatherlink.com 1.10,2013-03-10 11:17:00,
2013-03-10 07:32:00,34.7,34.0,29.97,ESE,123,4.0,-999.0,97,-99.99,,,0.11,weatherlink.com 1.10,2013-03-10 11:32:00,
2013-03-10 07:47:00,34.8,34.0,29.97,ESE,107,5.0,-999.0,97,-99.99,,,0.13,weatherlink.com 1.10,2013-03-10 11:47:00,
2013-03-10 08:02:00,34.7,34.0,29.97,ESE,118,2.0,-999.0,97,-99.99,,,0.14,weatherlink.com 1.10,2013-03-10 12:02:00,
2013-03-10 08:17:00,35.0,34.0,29.96,ESE,113,5.0,-999.0,97,-99.99,,,0.15,weatherlink.com 1.10,2013-03-10 12:17:00,
2013-03-10 08:32:00,34.9,34.0,29.96,SE,134,4.0,-999.0,97,-99.99,,,0.16,weatherlink.com 1.10,2013-03-10 12:32:00,
2013-03-10 08:47:00,35.0,34.0,29.96,ESE,118,4.0,-999.0,97,-99.99,,,0.17,weatherlink.com 1.10,2013-03-10 12:47:00,
2013-03-10 09:02:00,35.0,34.0,29.96,SE,131,3.0,-999.0,97,-99.99,,,0.19,weatherlink.com 1.10,2013-03-10 13:02:00,
2013-03-10 09:17:00,35.0,34.0,29.96,SSE,150,4.0,-999.0,97,-99.99,,,0.20,weatherlink.com 1.10,2013-03-10 13:17:00,
2013-03-10 09:32:00,35.1,34.0,29.96,SE,138,3.0,-999.0,97,-99.99,,,0.23,weatherlink.com 1.10,2013-03-10 13:32:00,
2013-03-10 09:47:00,35.1,34.0,29.95,SE,130,2.0,-999.0,97,-99.99,,,0.25,weatherlink.com 1.10,2013-03-10 13:47:00,
2013-03-10 10:02:00,35.2,35.0,29.95,SE,130,4.0,-999.0,97,-99.99,,,0.28,weatherlink.com 1.10,2013-03-10 14:02:00,
2013-03-10 10:17:00,35.3,35.0,29.94,SE,130,4.0,-999.0,97,-99.99,,,0.02,weatherlink.com 1.10,2013-03-10 14:17:00,
2013-03-10 10:32:00,35.4,35.0,29.94,SSE,162,2.0,-999.0,97,-99.99,,,0.05,weatherlink.com 1.10,2013-03-10 14:32:00,
2013-03-10 10:47:00,35.3,35.0,29.94,SE,138,5.0,-999.0,97,-99.99,,,0.07,weatherlink.com 1.10,2013-03-10 14:47:00,
2013-03-10 11:02:00,35.3,35.0,29.94,SE,146,7.0,-999.0,97,-99.99,,,0.11,weatherlink.com 1.10,2013-03-10 15:02:00,
2013-03-10 11:17:00,35.3,35.0,29.90,ESE,109,6.0,-999.0,97,-99.99,,,0.13,weatherlink.com 1.10,2013-03-10 15:17:00,
2013-03-10 11:33:00,35.7,35.0,29.92,SSE,161,4.0,-999.0,97,-99.99,,,0.15,weatherlink.com 1.10,2013-03-10 15:33:00,
2013-03-10 11:48:00,35.5,35.0,29.95,SSE,148,3.0,-999.0,97,-99.99,,,0.16,weatherlink.com 1.10,2013-03-10 15:48:00,
2013-03-10 12:03:00,35.4,35.0,29.96,SW,217,1.0,-999.0,97,-99.99,,,0.17,weatherlink.com 1.10,2013-03-10 16:03:00,
2013-03-10 12:18:00,35.4,35.0,29.95,SW,217,2.0,-999.0,97,-99.99,,,0.18,weatherlink.com 1.10,2013-03-10 16:18:00,
2013-03-10 12:33:00,35.7,35.0,29.94,South,175,0.0,-999.0,97,-99.99,,,0.18,weatherlink.com 1.10,2013-03-10 16:33:00,
2013-03-10 12:48:00,36.1,35.0,29.95,South,175,1.0,-999.0,97,-99.99,,,0.19,weatherlink.com 1.10,2013-03-10 16:48:00,
2013-03-10 13:03:00,36.5,36.0,29.96,South,175,0.0,-999.0,97,-99.99,,,0.21,weatherlink.com 1.10,2013-03-10 17:03:00,
2013-03-10 13:18:00,36.4,36.0,29.96,WNW,282,0.0,-999.0,97,-99.99,,,0.24,weatherlink.com 1.10,2013-03-10 17:18:00,
2013-03-10 13:33:00,36.4,36.0,29.96,West,281,0.0,-999.0,97,-99.99,,,0.25,weatherlink.com 1.10,2013-03-10 17:33:00,
2013-03-10 13:48:00,36.8,36.0,29.95,West,281,0.0,-999.0,97,-99.99,,,0.26,weatherlink.com 1.10,2013-03-10 17:48:00,
2013-03-10 14:03:00,37.3,37.0,29.95,WNW,283,0.0,-999.0,97,-99.99,,,0.26,weatherlink.com 1.10,2013-03-10 18:03:00,
2013-03-10 14:18:00,36.9,36.0,29.96,WNW,282,1.0,-999.0,97,-99.99,,,0.26,weatherlink.com 1.10,2013-03-10 18:18:00,
2013-03-10 14:33:00,36.1,35.0,29.96,WNW,283,1.0,-999.0,97,-99.99,,,0.27,weatherlink.com 1.10,2013-03-10 18:33:00,
2013-03-10 14:48:00,35.8,35.0,29.97,WNW,282,0.0,-999.0,97,-99.99,,,0.27,weatherlink.com 1.10,2013-03-10 18:48:00,
2013-03-10 15:03:00,35.7,35.0,29.96,WNW,282,0.0,-999.0,97,-99.99,,,0.27,weatherlink.com 1.10,2013-03-10 19:03:00,
2013-03-10 15:18:00,36.4,36.0,29.96,WNW,282,0.0,-999.0,97,-99.99,,,0.27,weatherlink.com 1.10,2013-03-10 19:18:00,
2013-03-10 15:33:00,36.5,36.0,29.96,WNW,282,0.0,-999.0,97,-99.99,,,0.27,weatherlink.com 1.10,2013-03-10 19:33:00,
2013-03-10 15:48:00,36.3,36.0,29.96,WNW,283,0.0,-999.0,97,-99.99,,,0.27,weatherlink.com 1.10,2013-03-10 19:48:00,
2013-03-10 16:03:00,37.3,37.0,29.96,WNW,283,1.0,-999.0,97,-99.99,,,0.27,weatherlink.com 1.10,2013-03-10 20:03:00,
2013-03-10 16:18:00,37.3,37.0,29.97,WNW,292,3.0,-999.0,97,-99.99,,,0.27,weatherlink.com 1.10,2013-03-10 20:18:00,
2013-03-10 16:33:00,37.5,37.0,29.97,WNW,292,1.0,-999.0,97,-99.99,,,0.27,weatherlink.com 1.10,2013-03-10 20:33:00,
2013-03-10 16:48:00,37.3,37.0,29.99,WNW,300,3.0,-999.0,97,-99.99,,,0.27,weatherlink.com 1.10,2013-03-10 20:48:00,
2013-03-10 17:03:00,37.0,36.0,30.00,NW,307,2.0,-999.0,97,-99.99,,,0.27,weatherlink.com 1.10,2013-03-10 21:03:00,
2013-03-10 17:18:00,36.9,36.0,30.01,NW,306,5.0,-999.0,97,-99.99,,,0.27,weatherlink.com 1.10,2013-03-10 21:18:00,
2013-03-10 17:33:00,36.6,36.0,30.01,WNW,300,1.0,-999.0,97,-99.99,,,0.27,weatherlink.com 1.10,2013-03-10 21:33:00,
2013-03-10 17:48:00,36.5,36.0,30.00,NW,326,2.0,-999.0,97,-99.99,,,0.27,weatherlink.com 1.10,2013-03-10 21:48:00,
2013-03-10 18:03:00,36.2,36.0,29.99,NNW,345,3.0,-999.0,97,-99.99,,,0.27,weatherlink.com 1.10,2013-03-10 22:03:00,
2013-03-10 18:18:00,36.5,36.0,29.98,NNW,342,0.0,-999.0,97,-99.99,,,0.27,weatherlink.com 1.10,2013-03-10 22:18:00,
2013-03-10 18:33:00,36.4,36.0,29.98,NNW,342,2.0,-999.0,97,-99.99,,,0.27,weatherlink.com 1.10,2013-03-10 22:33:00,
2013-03-10 18:48:00,36.5,36.0,29.98,NNW,342,2.0,-999.0,97,-99.99,,,0.27,weatherlink.com 1.10,2013-03-10 22:48:00,
2013-03-10 19:03:00,35.6,35.0,29.99,WNW,296,1.0,-999.0,97,-99.99,,,0.27,weatherlink.com 1.10,2013-03-10 23:03:00,
2013-03-10 19:18:00,35.0,34.0,30.00,WNW,296,0.0,-999.0,97,-99.99,,,0.27,weatherlink.com 1.10,2013-03-10 23:18:00,
2013-03-10 19:33:00,35.0,34.0,30.00,WNW,296,1.0,-999.0,97,-99.99,,,0.27,weatherlink.com 1.10,2013-03-10 23:33:00,
2013-03-10 19:48:00,35.0,34.0,30.01,WNW,296,0.0,-999.0,97,-99.99,,,0.27,weatherlink.com 1.10,2013-03-10 23:48:00,
2013-03-10 20:03:00,34.7,34.0,30.00,WNW,296,0.0,-999.0,97,-99.99,,,0.28,weatherlink.com 1.10,2013-03-11 00:03:00,
2013-03-10 20:18:00,34.8,34.0,30.01,WNW,296,0.0,-999.0,97,-99.99,,,0.28,weatherlink.com 1.10,2013-03-11 00:18:00,
2013-03-10 20:33:00,34.8,34.0,30.02,WNW,296,0.0,-999.0,97,-99.99,,,0.28,weatherlink.com 1.10,2013-03-11 00:33:00,
2013-03-10 20:48:00,34.6,34.0,30.03,WNW,296,0.0,-999.0,97,-99.99,,,0.28,weatherlink.com 1.10,2013-03-11 00:48:00,
2013-03-10 21:33:00,34.1,33.0,30.03,WNW,296,0.0,-999.0,96,-99.99,,,0.35,weatherlink.com 1.10,2013-03-11 01:33:00,
2013-03-10 21:48:00,34.6,34.0,30.04,WNW,296,1.0,-999.0,97,-99.99,,,0.36,weatherlink.com 1.10,2013-03-11 01:48:00,
2013-03-10 22:03:00,34.2,34.0,30.03,WNW,297,2.0,-999.0,97,-99.99,,,0.39,weatherlink.com 1.10,2013-03-11 02:03:00,
2013-03-10 22:18:00,34.4,34.0,30.03,NNE,16,2.0,-999.0,97,-99.99,,,0.41,weatherlink.com 1.10,2013-03-11 02:18:00,
2013-03-10 22:33:00,34.4,34.0,30.04,NNE,16,2.0,-999.0,97,-99.99,,,0.42,weatherlink.com 1.10,2013-03-11 02:33:00,
2013-03-10 22:48:00,34.4,34.0,30.04,NNE,15,2.0,-999.0,97,-99.99,,,0.42,weatherlink.com 1.10,2013-03-11 02:48:00,
2013-03-10 23:03:00,33.7,33.0,30.03,NNE,15,0.0,-999.0,97,-99.99,,,0.43,weatherlink.com 1.10,2013-03-11 03:03:00,
2013-03-10 23:18:00,34.1,33.0,30.03,NNE,15,0.0,-999.0,97,-99.99,,,0.44,weatherlink.com 1.10,2013-03-11 03:18:00,
2013-03-10 23:34:00,34.1,33.0,30.03,NNE,15,0.0,-999.0,97,-99.99,,,0.44,weatherlink.com 1.10,2013-03-11 03:34:00,
2013-03-10 23:49:00,34.1,33.0,30.03,NNE,16,0.0,-999.0,97,-99.99,,,0.45,weatherlink.com 1.10,2013-03-11 03:49:00,